Simultaneous Nadir Overpasses (SNOs) Predictions

Prediction of SNOs between LANDSAT-8 and NOAA-19 Satellite Orbit:

Table of predicted SNOs for the next 14.0 days since TLE Epoch: 2/8/2020
Index Date (LANDSAT-8) Time (LANDSAT-8) Lat,Lon (LANDSAT-8) SZA (LANDSAT-8 ) Date (NOAA-19) Time (NOAA-19) Lat,Lon (NOAA-19) SZA (NOAA-19 ) Distance(km) Time Diff (sec)
1 02/09/2020 02:41:53 79.46, 163.01 94.89 02/09/2020 02:41:52 79.46, 163.04 94.89 0.72 1
2 02/11/2020 08:15:37 -79.48,-100.31 85.82 02/11/2020 08:15:13 -79.46,-100.26 85.83 1.65 24
3 02/11/2020 09:05:04 79.43, 67.05 94.12 02/11/2020 09:06:12 79.45, 67.14 94.16 2.54 68
4 02/13/2020 13:49:20 79.49, -3.65 93.47 02/13/2020 13:48:33 79.49, -3.75 93.45 1.94 47
5 02/13/2020 14:38:48 -79.46, 163.78 86.59 02/13/2020 14:39:34 -79.47, 163.72 86.57 1.46 46
6 02/15/2020 19:23:04 -79.48, 92.87 87.30 02/15/2020 19:21:54 -79.49, 93.00 87.30 2.67 70
7 02/15/2020 20:12:30 79.48, -99.54 92.68 02/15/2020 20:12:52 79.48, -99.66 92.69 2.67 22
8 02/18/2020 01:46:15 -79.48, -2.96 88.09 02/18/2020 01:46:15 -79.50, -3.05 88.08 2.53 0
9 02/20/2020 07:19:58 79.50, 93.77 91.16 02/20/2020 07:19:32 79.49, 93.80 91.14 1.97 26




NCC Satellite Simultaneous Nadir Overpasses (SNOs) Prediction Service
